FW1912 Weather Reports


time (UTC)temp
F
wind
direction
speed
knots
gust
knots
rain 1hr
in
rain 24hr
in
rain mn
in
humidity
%
barometer
mb
20260504220050 0 0.0 0.0 0.00 0.00 0.00 1002.9
20260504214554 78 348 9.6 14.8 0.00 0.00 0.00 34 1002.5
20260504213044 79 28 8.7 13.0 0.00 0.00 0.00 34 1002.6
20260504211546 80 17 7.0 11.3 0.00 0.00 0.00 32 1002.4
20260504210055 81 17 7.0 13.9 0.00 0.00 0.00 30 1002.5
20260504204556 80 21 5.2 10.4 0.00 0.00 0.00 32 1002.6
20260504203115 81 360 8.7 13.0 0.00 0.00 0.00 32 1002.4
20260504201549 81 360 8.7 13.9 0.00 0.00 0.00 29 1002.6
20260504200047 81 0 0.9 13.0 0.00 0.00 0.00 29 1002.7
20260504194544 82 352 9.6 13.9 0.00 0.00 0.00 28 1002.8
20260504193051 81 360 6.1 13.0 0.00 0.00 0.00 26 1002.7
20260504191539 81 304 5.2 9.6 0.00 0.00 0.00 27 1002.8
20260504190052 81 0 3.5 13.0 0.00 0.00 0.00 24 1002.8
20260504184538 80 307 7.0 13.9 0.00 0.00 0.00 27 1003.0
20260504183045 80 306 7.0 10.4 0.00 0.00 0.00 27 1003.0
20260504181542 80 313 6.1 13.9 0.00 0.00 0.00 27 1002.9
20260504180053 79 301 5.2 13.0 0.00 0.00 0.00 29 1003.1
20260504174549 79 306 8.7 12.2 0.00 0.00 0.00 29 1003.1
20260504173059 78 0 7.8 14.8 0.00 0.00 0.00 29 1003.3
20260504171549 78 300 7.0 13.9 0.00 0.00 0.00 30 1003.5
20260504081547 57 0 0.0 0.0 0.00 0.00 0.00 57 1004.8
20260504044539 62 0 0.0 0.0 0.00 0.00 0.00 46 1007.7
20260504043037 62 0 0.0 0.0 0.00 0.00 0.00 48 1007.8
20260504041546 62 0 0.0 0.0 0.00 0.00 0.00 47 1008.2
20260504040047 63 0 0.0 0.0 0.00 0.00 0.00 45 1008.3
20260504034547 63 0 0.0 0.0 0.00 0.00 0.00 44 1008.5
20260504033047 64 0 0.0 0.0 0.00 0.00 0.00 44 1008.8
20260504031548 64 0 0.0 0.0 0.00 0.00 0.00 43 1008.6
20260504030038 66 0 0.0 6.1 0.00 0.00 0.00 41 1008.8
20260504024547 67 0 0.0 0.9 0.00 0.00 0.00 39 1008.8
20260504023042 67 0 0.0 0.0 0.00 0.00 0.00 39 1008.8
20260504021553 68 0 0.0 0.0 0.00 0.00 0.00 39 1008.7
20260504020049 68 70 0.0 0.0 0.00 0.00 0.00 38 1008.6
20260504014546 69 0 0.0 0.0 0.00 0.00 0.00 37 1008.7
20260504013101 70 0 0.0 0.0 0.00 0.00 0.00 36 1008.6
20260504011548 71 0 0.0 0.0 0.00 0.00 0.00 34 1008.6
20260504010050 72 0 0.0 0.0 0.00 0.00 0.00 34 1008.8
20260504004548 73 0 0.0 0.0 0.00 0.00 0.00 33 1008.8
20260504003047 73 0 0.0 5.2 0.00 0.00 0.00 33 1008.9
20260504001551 75 0 0.0 5.2 0.00 0.00 0.00 32 1009.2
20260504000052 75 0 0.0 0.0 0.00 0.00 0.00 32 1009.7
20260503234548 0 0.0 0.0 0.00 0.00 0.00 1009.5
20260503233049 0 0.0 0.0 0.00 0.00 0.00 1009.7
20260503231538 0 0.0 0.0 0.00 0.00 0.00 1009.7
20260503230046 0 0.0 0.0 0.00 0.00 0.00 1009.9
20260503224543 0 0.0 0.0 0.00 0.00 0.00 1009.9
20260503223042 0 0.0 0.0 0.00 0.00 0.00 1009.8
20260503221558 0 0.0 0.0 0.00 0.00 0.00 1010.0